Weather History for Bierset, Belgium

Change the Weather History Date:

Thursday, July 11, 2013

  Actual Average Record
Temperature  
Mean Temperature 56 °F -  
Max Temperature 64 °F 70 °F 91 °F (2010)
Min Temperature 49 °F 55 °F 49 °F (2013)
Degree Days  
Heating Degree Days 8    
Growing Degree Days 6 (Base 50)    
Moisture  
Dew Point 49 °F    
Average Humidity 70    
Maximum Humidity 95    
Minimum Humidity 51    
Precipitation  
Precipitation 0.00 in - - ()
Sea Level Pressure  
Sea Level Pressure 30.19 in    
Wind  
Wind Speed 8 mph ()    
Max Wind Speed 13 mph    
Max Gust Speed 25 mph    
Visibility 8.3 miles    
Events Fog    
Averages and records for this station are not official NWS values.
T = Trace of Precipitation, MM = Missing Value Source: Averaged Metar Reports

Daily Weather History Graph

Daily Weather History Graph

Search for Another Location

Airport:

Trip Planner

Search our weather history database for the weather conditions in past years. The results will help you decide how hot, cold, wet, or windy it might be!

Date:

Astronomy

Jul. 11, 2013 Rise Set
Actual Time 5:38 AM CEST 9:48 PM CEST
Civil Twilight 4:54 AM CEST 10:32 PM CEST
Nautical Twilight 3:51 AM CEST 11:34 PM CEST
Astronomical Twilight 2:16 AM CEST 1:11 AM CEST
Moon 9:07 AM CEST (7/11) 10:51 PM CEST (7/11)
Length of Visible Light 17h 37m
Length of Day
16h 09m
Waxing Crescent, 9% of the Moon is Illuminated
Jul 11
Waxing Crescent
Jul 16
First Quarter
Jul 22
Full
Jul 29
Last Quarter
Aug 6
New

Hourly Weather History & Observations

Time (CEST) Temp. Dew Point Humidity Pressure Visibility Wind Dir Wind Speed Gust Speed Precip Events Conditions
12:20 AM 57.2 °F 50.0 °F 77% 30.18 in 6.2 mi North 10.4 mph - N/A   Mostly Cloudy
12:50 AM 55.4 °F 50.0 °F 82% 30.18 in 6.2 mi NNE 9.2 mph - N/A   Mostly Cloudy
1:00 AM 56 °F 50 °F 73% 30.19 in 16 mi NNE 8.9 mph - -   Mostly Cloudy
1:20 AM 57.2 °F 48.2 °F 72% 30.18 in 6.2 mi NE 12.7 mph - N/A   Mostly Cloudy
1:50 AM 55.4 °F 48.2 °F 77% 30.18 in 6.2 mi NNE 10.4 mph - N/A   Mostly Cloudy
2:00 AM 56 °F 48 °F 66% 30.20 in 19 mi NNE 8.9 mph - -   Mostly Cloudy
2:20 AM 55.4 °F 48.2 °F 77% 30.18 in 6.2 mi NNE 6.9 mph - N/A   Mostly Cloudy
2:50 AM 55.4 °F 48.2 °F 77% 30.18 in 6.2 mi NNE 6.9 mph - N/A   Mostly Cloudy
3:00 AM 56 °F 48 °F 67% 30.19 in 19 mi NNE 6.7 mph - -   Mostly Cloudy
3:20 AM 55.4 °F 48.2 °F 77% 30.18 in 6.2 mi NNE 6.9 mph - N/A   Mostly Cloudy
3:50 AM 55.4 °F 48.2 °F 77% 30.18 in 6.2 mi NNE 6.9 mph - N/A   Mostly Cloudy
4:00 AM 56 °F 49 °F 69% 30.19 in 19 mi NNE 6.7 mph - -   Mostly Cloudy
4:20 AM 55.4 °F 48.2 °F 77% 30.18 in 6.2 mi NNE 6.9 mph - N/A   Mostly Cloudy
4:50 AM 55.4 °F 46.4 °F 72% 30.18 in 6.2 mi NE 9.2 mph - N/A   Mostly Cloudy
5:00 AM 55 °F 46 °F 64% 30.19 in 19 mi NE 8.9 mph - -   Mostly Cloudy
5:20 AM 55.4 °F 46.4 °F 72% 30.18 in 6.2 mi NE 11.5 mph 25.3 mph N/A   Mostly Cloudy
5:50 AM 55.4 °F 46.4 °F 72% 30.18 in 6.2 mi NNE 6.9 mph - N/A   Mostly Cloudy
6:00 AM 55 °F 47 °F 66% 30.19 in 19 mi NNE 6.7 mph - -   Mostly Cloudy
6:20 AM 55.4 °F 48.2 °F 77% 30.18 in 6.2 mi NNE 6.9 mph - N/A   Mostly Cloudy
6:50 AM 55.4 °F 48.2 °F 77% 30.18 in 6.2 mi NNE 8.1 mph - N/A   Mostly Cloudy
7:00 AM 55 °F 48 °F 69% 30.20 in 16 mi NNE 8.9 mph - -   Mostly Cloudy
7:20 AM 55.4 °F 48.2 °F 77% 30.18 in 6.2 mi NNE 6.9 mph - N/A   Mostly Cloudy
7:50 AM 55.4 °F 48.2 °F 77% 30.18 in 6.2 mi NNE 6.9 mph - N/A   Mostly Cloudy
8:00 AM 55 °F 49 °F 73% 30.20 in 16 mi NNE 6.7 mph - -   Mostly Cloudy
8:20 AM 55.4 °F 48.2 °F 77% 30.18 in 6.2 mi NNE 6.9 mph - N/A   Mostly Cloudy
8:50 AM 55.4 °F 48.2 °F 77% 30.18 in 6.2 mi NNE 9.2 mph - N/A   Mostly Cloudy
9:00 AM 55 °F 48 °F 69% 30.21 in 13 mi NNE 8.9 mph - -   Mostly Cloudy
9:20 AM 55.4 °F 48.2 °F 77% 30.21 in 6.2 mi NE 10.4 mph - N/A   Mostly Cloudy
9:50 AM 55.4 °F 48.2 °F 77% 30.21 in 6.2 mi NE 10.4 mph - N/A   Mostly Cloudy
10:00 AM 56 °F 47 °F 64% 30.22 in 13 mi NE 11.2 mph - -   Mostly Cloudy
10:20 AM 55.4 °F 48.2 °F 77% 30.21 in 6.2 mi NNE 9.2 mph - N/A   Mostly Cloudy
10:50 AM 57.2 °F 48.2 °F 72% 30.21 in 6.2 mi NE 10.4 mph - N/A   Mostly Cloudy
11:00 AM 58 °F 49 °F 65% 30.22 in 9 mi North 11.2 mph - -   Mostly Cloudy
11:20 AM 57.2 °F 48.2 °F 72% 30.21 in 6.2 mi NNE 10.4 mph - N/A   Mostly Cloudy
11:50 AM 57.2 °F 50.0 °F 77% 30.21 in 6.2 mi North 10.4 mph - N/A   Mostly Cloudy
12:00 PM 58 °F 49 °F 65% 30.22 in 9 mi North 11.2 mph - -   Mostly Cloudy
12:20 PM 57.2 °F 48.2 °F 72% 30.21 in 6.2 mi North 8.1 mph - N/A   Mostly Cloudy
12:50 PM 57.2 °F 48.2 °F 72% 30.21 in 6.2 mi NNE 9.2 mph - N/A   Mostly Cloudy
1:00 PM 58 °F 48 °F 61% 30.22 in 11 mi NNE 8.9 mph - -   Mostly Cloudy
1:20 PM 59.0 °F 48.2 °F 67% 30.21 in 6.2 mi North 10.4 mph - N/A   Mostly Cloudy
1:50 PM 59.0 °F 50.0 °F 72% 30.21 in 6.2 mi NNE 9.2 mph - N/A   Mostly Cloudy
2:00 PM 59 °F 49 °F 62% 30.22 in 11 mi NNE 8.9 mph - -   Mostly Cloudy
2:20 PM 59.0 °F 50.0 °F 72% 30.21 in 6.2 mi NNE 8.1 mph - N/A   Mostly Cloudy
2:50 PM 60.8 °F 50.0 °F 68% 30.21 in 6.2 mi NE 9.2 mph - N/A   Mostly Cloudy
3:00 PM 60 °F 50 °F 60% 30.21 in 11 mi NE 8.9 mph - -   Mostly Cloudy
3:20 PM 60.8 °F 50.0 °F 68% 30.21 in 6.2 mi NNE 8.1 mph - N/A   Mostly Cloudy
3:50 PM 60.8 °F 50.0 °F 68% 30.21 in 6.2 mi ENE 9.2 mph - N/A   Mostly Cloudy
4:00 PM 61 °F 49 °F 55% 30.21 in 11 mi ENE 8.9 mph - -   Mostly Cloudy
4:20 PM 60.8 °F 50.0 °F 68% 30.18 in 6.2 mi ENE 5.8 mph - N/A   Mostly Cloudy
4:50 PM 60.8 °F 50.0 °F 68% 30.18 in 6.2 mi NE 8.1 mph - N/A   Mostly Cloudy
5:00 PM 61 °F 49 °F 55% 30.20 in 11 mi NE 8.9 mph - -   Mostly Cloudy
5:20 PM 62.6 °F 50.0 °F 63% 30.18 in 6.2 mi NNE 6.9 mph - N/A   Scattered Clouds
5:50 PM 62.6 °F 51.8 °F 68% 30.18 in 6.2 mi NE 8.1 mph - N/A   Scattered Clouds
6:00 PM 63 °F 51 °F 56% 30.19 in 12 mi NE 8.9 mph - -   Partly Cloudy
6:20 PM 64.4 °F 51.8 °F 64% 30.18 in 6.2 mi NNE 8.1 mph - N/A   Scattered Clouds
6:50 PM 64.4 °F 50.0 °F 59% 30.18 in 6.2 mi NNE 6.9 mph - N/A   Scattered Clouds
7:00 PM 64 °F 50 °F 51% 30.18 in 12 mi NNE 6.7 mph - -   Partly Cloudy
7:20 PM 62.6 °F 50.0 °F 63% 30.18 in 6.2 mi ENE 5.8 mph - N/A   Scattered Clouds
7:50 PM 62.6 °F 48.2 °F 59% 30.18 in 6.2 mi NE 5.8 mph - N/A   Partly Cloudy
8:00 PM 62 °F 49 °F 53% 30.18 in 12 mi NE 6.7 mph - -   Scattered Clouds
8:20 PM 62.6 °F 48.2 °F 59% 30.18 in 6.2 mi East 5.8 mph - N/A   Partly Cloudy
8:50 PM 60.8 °F 50.0 °F 68% 30.18 in 6.2 mi East 5.8 mph - N/A   Partly Cloudy
9:00 PM 62 °F 49 °F 54% 30.19 in 12 mi East 4.5 mph - -   Scattered Clouds
9:20 PM 60.8 °F 50.0 °F 68% 30.18 in 6.2 mi ENE 5.8 mph - N/A   Partly Cloudy
9:50 PM 59.0 °F 48.2 °F 67% 30.18 in 6.2 mi East 5.8 mph - N/A   Partly Cloudy
10:00 PM 49 °F 48 °F 95% 30.22 in 0 mi Calm Calm - - Fog Patches of Fog
10:20 PM 59.0 °F 48.2 °F 67% 30.18 in 6.2 mi East 4.6 mph - N/A   Partly Cloudy
10:50 PM 59.0 °F 50.0 °F 72% 30.18 in 6.2 mi ENE 3.5 mph - N/A   Partly Cloudy
11:00 PM 49 °F 48 °F 95% 30.22 in 0 mi Calm Calm - - Fog Patches of Fog
11:20 PM 55.4 °F 50.0 °F 82% 30.18 in 6.2 mi NNE 4.6 mph - N/A   Partly Cloudy
11:50 PM 53.6 °F 48.2 °F 82% 30.21 in - NNE 5.8 mph - N/A   Clear